Regional Weather Roundup
Issued by NWS

Home | Current Version | Previous Version | Graphics & Text | Print | Product List | Glossary On
Versions: 1 2 3 4 5 6 7 8 9 10 11 12 13 14 15 16 17 18 19 20 21 22 23 24 25 26 27 28 29 30 31 32 33 34 35 36 37 38 39 40 41 42 43 44 45 46 47 48 49 50
000
ASUS43 KMKX 070621
RWRWI

WISCONSIN REGIONAL WEATHER ROUNDUP
NATIONAL WEATHER SERVICE MILWAUKEE/SULLIVAN WI
100 AM CDT TUE JUL 07 2015

NOTE: "FAIR" INDICATES FEW OR NO CLOUDS BELOW 12,000 FEET WITH NO
SIGNIFICANT WEATHER AND/OR OBSTRUCTIONS TO VISIBILITY.

WIZ001-002-006>008-014>016-023>028-070700-
NORTHWEST WISCONSIN

CITY           SKY/WX    TMP DP  RH WIND       PRES   REMARKS
SUPERIOR ARPT  CLOUDY    57  47  69 N5        30.05R
6HR MIN TEMP:  57; 6HR MAX TEMP:  66;

ASHLAND        CLOUDY    55  45  68 N10       30.04R
6HR MIN TEMP:  55; 6HR MAX TEMP:  64;

HAYWARD        CLEAR     54  47  77 N7        30.04R
6HR MIN TEMP:  54; 6HR MAX TEMP:  64;

SIREN          CLOUDY    55  47  74 N5        30.05S
6HR MIN TEMP:  53; 6HR MAX TEMP:  69;

CUMBERLAND     CLOUDY    54  46  76 N10       30.03S
RICE LAKE      CLOUDY    56  49  77 N5        30.04S
6HR MIN TEMP:  56; 6HR MAX TEMP:  65;

CHETEK         CLEAR     57  51  79 NW7       30.02S
6HR MIN TEMP:  57; 6HR MAX TEMP:  65;

LADYSMITH      CLEAR     56  52  85 N12       30.02R
6HR MIN TEMP:  56; 6HR MAX TEMP:  63;

EAU CLAIRE     PTCLDY    59  52  77 NW8       29.99R
6HR MIN TEMP:  59; 6HR MAX TEMP:  65;

MENOMONIE      MOCLDY    59  50  72 NW9       30.01S
6HR MIN TEMP:  59; 6HR MAX TEMP:  67;

NEW RICHMOND   PTCLDY    56  47  74 N9        30.04F
6HR MIN TEMP:  55; 6HR MAX TEMP:  67;

OSCEOLA        CLEAR     56  48  74 NW3       30.08R
6HR MIN TEMP:  56; 6HR MAX TEMP:  69;

$$

WIZ003>005-009-010-017-018-070700-
NORTH CENTRAL WISCONSIN

CITY           SKY/WX    TMP DP  RH WIND       PRES   REMARKS
MANITOWISH WTR CLOUDY    52  50  92 N10G17    29.99R
6HR MIN TEMP:  52; 6HR MAX TEMP:  58;

ARBOR VITAE    CLOUDY    57  54  89 NW13G20   29.97R
6HR MIN TEMP:  57; 6HR MAX TEMP:  59;

WOODRUFF       CLOUDY    57  54  89 NW13G20   29.97R
6HR MIN TEMP:  57; 6HR MAX TEMP:  59;

RHINELANDER    CLOUDY    57  54  89 NW5       29.96S FOG
6HR MIN TEMP:  56; 6HR MAX TEMP:  59; 6HR PCP: TRACE;

EAGLE RIVER    CLOUDY    55  55 100 N8        29.95S FOG
LAND O LAKES   CLOUDY    56  53  88 N15G23    29.96S FOG
6HR MIN TEMP:  56; 6HR MAX TEMP:  58; 6HR PCP:  0.04;

PHILLIPS       CLOUDY    55  53  93 NW6       29.99R
6HR MIN TEMP:  54; 6HR MAX TEMP:  60;

TOMAHAWK       CLEAR     53  52  96 NW6       29.97S FOG
6HR MIN TEMP:  53; 6HR MAX TEMP:  59;

MEDFORD        MOCLDY    55  54  96 N8        29.96F FOG
6HR MIN TEMP:  54; 6HR MAX TEMP:  61;

MERRILL          N/A     55  55 100 N5        29.96S FOG
6HR MIN TEMP:  54; 6HR MAX TEMP:  61;

$$

WIZ029-030-035-036-043>047-070700-
CENTRAL WISCONSIN

CITY           SKY/WX    TMP DP  RH WIND       PRES   REMARKS
WAUSAU         PTCLDY    57  54  89 N8        29.93S FOG
6HR MIN TEMP:  57; 6HR MAX TEMP:  63;

MOSINEE        CLEAR     55  54  94 NW7       29.95S FOG
MARSHFIELD     CLEAR     57  53  86 NW9       29.95S FOG
6HR MIN TEMP:  57; 6HR MAX TEMP:  65;

STEVENS POINT  PTCLDY    57  55  92 N5        29.94S FOG
6HR MIN TEMP:  57; 6HR MAX TEMP:  63;

WAUPACA        CLOUDY    63  58  83 N7        29.91F HAZE
6HR MIN TEMP:  63; 6HR MAX TEMP:  75; 6HR PCP:  0.03;

WAUTOMA        CLOUDY    63  59  87 N7        29.92R FOG
6HR MIN TEMP:  62; 6HR MAX TEMP:  77; 6HR PCP:  0.06;

WISC RAPIDS    CLEAR     59  54  83 N6        29.95R HAZE
6HR MIN TEMP:  59; 6HR MAX TEMP:  66;

CAMP DOUGLAS   PTCLDY    57  57 100 NW6       29.94S FOG
6HR MIN TEMP:  57; 6HR MAX TEMP:  66; 6HR PCP: TRACE;

$$

WIZ011>013-019>022-031-037>040-048>050-070700-
NORTHEAST WISCONSIN

CITY           SKY/WX    TMP DP  RH WIND       PRES   REMARKS
ANTIGO         CLOUDY    56  55  96 N8        29.94R FOG
SHAWANO        CLOUDY    63  56  80 N10       29.91S HAZE
6HR MIN TEMP:  62; 6HR MAX TEMP:  74; 6HR PCP:  0.34;

OCONTO         CLOUDY    59  59 100 N8        29.89R
6HR MIN TEMP:  58; 6HR MAX TEMP:  72; 6HR PCP:  0.09;

STURGEON BAY   CLOUDY    61  55  82 N18G24    29.90S
6HR MIN TEMP:  59; 6HR MAX TEMP:  72;

GREEN BAY      CLOUDY    61  57  87 N10       29.89S FOG
6HR MIN TEMP:  61; 6HR MAX TEMP:  78; 6HR PCP:  0.03;

MANITOWOC      RAIN      59  57  94 MISG      29.87R FOG
6HR MIN TEMP:  59; 6HR MAX TEMP:  79;

APPLETON       CLOUDY    61  54  77 N13G20    29.90S HAZE
CLINTONVILLE   CLOUDY    61  54  77 N9        29.90S HAZE
OSHKOSH        LGT RAIN  61  57  87 N13G23    29.89R FOG
6HR MIN TEMP:  61; 6HR MAX TEMP:  75; 6HR PCP:  0.07;

$$

WIZ032>034-041-042-053>061-070700-
SOUTHWEST WISCONSIN

CITY           SKY/WX    TMP DP  RH WIND       PRES   REMARKS
LA CROSSE      CLOUDY    59  56  89 NW6       29.96S FOG
6HR MIN TEMP:  59; 6HR MAX TEMP:  68;

SPARTA           N/A     55  53  95 CALM      29.96S FOG
6HR MIN TEMP:  55; 6HR MAX TEMP:  65;

VIROQUA        CLEAR     58  58 100 N7        29.96R
6HR MIN TEMP:  58; 6HR MAX TEMP:  64;

BOSCOBEL       CLOUDY    63  56  78 VRB6      29.95R HAZE
6HR MIN TEMP:  63; 6HR MAX TEMP:  75; 6HR PCP:  0.02;

PRAIRIE DU CHI CLOUDY    63  54  73 N7        29.96R HAZE
6HR MIN TEMP:  63; 6HR MAX TEMP:  72;

PLATTEVILLE    CLOUDY    62  58  88 N10       29.93R
6HR MIN TEMP:  62; 6HR MAX TEMP:  77; 6HR PCP:  0.17;

$$

WIZ056-057-062-063-064-067-068-070700-
SOUTH CENTRAL WISCONSIN

CITY           SKY/WX    TMP DP  RH WIND       PRES   REMARKS
REEDSBURG      CLOUDY    61  57  87 N8        29.93R FOG
6HR MIN TEMP:  61; 6HR MAX TEMP:  74; 6HR PCP:  0.13;

BARABOO/DELLS  CLOUDY    61  56  82 N8        29.92S HAZE
6HR MIN TEMP:  61; 6HR MAX TEMP:  75; 6HR PCP:  0.29;

LONE ROCK      CLOUDY    63  56  78 NW6       29.94R HAZE
6HR MIN TEMP:  63; 6HR MAX TEMP:  76; 6HR PCP:  0.35;

MINERAL POINT  MOCLDY    61  57  88 N10G17    29.92R FOG
MADISON        CLOUDY    62  58  86 N12       29.90R FOG
6HR MIN TEMP:  62; 6HR MAX TEMP:  78; 6HR PCP:  0.49;

MIDDLETON      CLOUDY    63  59  87 N10       29.91R
6HR MIN TEMP:  63; 6HR MAX TEMP:  79; 6HR PCP:  0.56;

WATERTOWN      CLOUDY    62  62 100 N8        29.86R
6HR MIN TEMP:  62; 6HR MAX TEMP:  77; 6HR PCP:  0.46;

MONROE         CLOUDY    63  59  88 N13G28    29.89R
JANESVILLE     RAIN      64  63  94 N14G20    29.86R
$$

WIZ051-052-058>065-066-070>072-070700-
SOUTHEAST WISCONSIN

CITY           SKY/WX    TMP DP  RH WIND       PRES   REMARKS
MILWAUKEE      CLOUDY    72  69  90 SW8       29.81F
6HR MIN TEMP:  71; 6HR MAX TEMP:  77; 6HR PCP:  0.36;

WAUKESHA       LGT RAIN  64  63  94 NW14G20   29.84R
MILWAUKEE/TIMM CLOUDY    70  68  94 SW3       29.82S
RACINE         CLOUDY    72  68  87 SW6       29.82F
6HR MIN TEMP:  72; 6HR MAX TEMP:  76; 6HR PCP:  0.07;

BURLINGTON     CLOUDY    68  67  94 W9        29.83S
6HR MIN TEMP:  68; 6HR MAX TEMP:  74; 6HR PCP:  0.10;

KENOSHA        CLOUDY    73  68  84 SW12      29.82F
6HR MIN TEMP:  72; 6HR MAX TEMP:  76; 6HR PCP:  0.01;

FOND DU LAC    LGT RAIN  61  58  90 N18G26    29.89R FOG
6HR MIN TEMP:  61; 6HR MAX TEMP:  78; 6HR PCP:  0.26;

SHEBOYGAN      HVY RAIN  60  58  92 N14G23    29.86R FOG
6HR MIN TEMP:  60; 6HR MAX TEMP:  79; 6HR PCP:  0.08;

WEST BEND      RAIN      63  59  88 W9        29.87R
JUNEAU         RAIN      60  59  95 N15G21    29.90R
6HR MIN TEMP:  60; 6HR MAX TEMP:  76; 6HR PCP:  0.15;

$$

LSZ147-162-070700-
LAKE SUPERIOR

STATION/POSITION TIME  TEMP    WIND        PRES    WAVE
                       AIR SEA DIR/SP/G            HT/PER
                 (UTC) (F)     (DEG/KT/KT) (MB)    (FT/S)
W MID LAKE BUOY  0550   46 39  320/  8/  8 1015.8R   1
DEVILS ISLAND    0600   57     330/ 14/ 16 1016.9R
PORT WING        0500   58     350/ 11/ 12 1017.3F
SAXON HARBOR     0540   60     360/ 12/ 17 1016.3R
$$

LMZ867-665-643>646-070700-
LAKE MICHIGAN

STATION/POSITION TIME  TEMP    WIND        PRES    WAVE
                       AIR SEA DIR/SP/G            HT/PER


USA.gov is the U.S. government's official web portal to all federal, state and local government web resources and services.